Location: Boiro
(42.6475°N, 8.8834°W)
Time: 01:06:00
(UTC+01:00)

Transit 2A Rocket - Pass Details

Date: 02 December 2021
Orbit: 584 x 917 km, 66.7° (Epoch: 23 January)

Event Time Altitude Azimuth Distance (km) Brightness Sun altitude
Rises 15:43:15 0° 336° (NNW) 3,562 8.1 17.9°
Reaches altitude 10° 15:48:14 10° 10° (N) 2,613 7.3 17.4°
Maximum altitude 15:49:52 11° 26° (NNE) 2,530 7.2 17.2°
Drops below altitude 10° 15:51:29 10° 42° (NE) 2,593 7.2 17.0°
Sets 15:56:20 0° 77° (ENE) 3,478 8.0 16.5°
